K3JAR-3 Weather Reports


Display with metric or nautical units.
time (UTC)temp
F
wind
direction
speed
MPH
gust
MPH
rain 1hr
in
rain 24hr
in
rain mn
in
humidity
%
barometer
mb
20260902185028 98 64 7.0 11.0 0.00 0.00 0.00 41 1015.9
20260902184031 97 24 5.0 9.0 0.00 0.00 0.00 43 1016.1
20260902183017 97 15 4.0 6.0 0.00 0.00 0.00 44 1016.2
20260902182025 96 12 6.0 11.0 0.00 0.00 0.00 47 1016.4
20260902181043 96 358 3.0 6.0 0.00 0.00 0.00 46 1016.6
20260902180026 97 75 4.0 7.0 0.00 0.00 0.00 46 1017.0
20260902175050 96 114 2.0 7.0 0.00 0.00 0.00 49 1017.1
20260902174015 96 17 2.0 6.0 0.00 0.00 0.00 48 1017.3
20260902173018 97 349 5.0 9.0 0.00 0.00 0.00 48 1017.4
20260902172022 97 111 4.0 7.0 0.00 0.00 0.00 47 1017.5
20260902171019 95 129 2.0 5.0 0.00 0.00 0.00 51 1017.7
20260902170017 96 82 4.0 8.0 0.00 0.00 0.00 48 1017.8
20260902165037 95 67 3.0 6.0 0.00 0.00 0.00 49 1017.9
20260902164017 93 174 3.0 4.0 0.00 0.00 0.00 52 1018.0
20260902163020 93 127 4.0 8.0 0.00 0.00 0.00 52 1018.1
20260902162023 93 86 4.0 7.0 0.00 0.00 0.00 50 1018.1
20260902161046 93 86 4.0 7.0 0.00 0.00 0.00 52 1018.2
20260902160030 93 84 4.0 6.0 0.00 0.00 0.00 53 1018.3
20260902155014 92 94 4.0 6.0 0.00 0.00 0.00 53 1018.2
20260902154018 92 82 4.0 6.0 0.00 0.00 0.00 55 1018.3
20260902153021 92 94 3.0 6.0 0.00 0.00 0.00 54 1018.2
20260902152024 89 94 2.0 3.0 0.00 0.00 0.00 58 1018.2
20260902151028 89 88 3.0 4.0 0.00 0.00 0.00 60 1018.2
20260902150031 88 127 2.0 4.0 0.00 0.00 0.00 61 1018.1
20260902145016 88 96 2.0 5.0 0.00 0.00 0.00 61 1018.1
20260902144020 88 107 2.0 4.0 0.00 0.00 0.00 62 1018.2
20260902143023 86 127 2.0 4.0 0.00 0.00 0.00 65 1018.1
20260902142026 86 150 3.0 4.0 0.00 0.00 0.00 65 1018.1
20260902141049 86 105 3.0 5.0 0.00 0.00 0.00 65 1018.1
20260902140016 86 94 3.0 5.0 0.00 0.00 0.00 66 1018.0
20260902135018 85 117 2.0 4.0 0.00 0.00 0.00 67 1018.1
20260902134022 84 74 3.0 5.0 0.00 0.00 0.00 69 1018.1
20260902133019 83 116 3.0 4.0 0.00 0.00 0.00 71 1018.1
20260902132016 83 111 3.0 5.0 0.00 0.00 0.00 72 1018.1
20260902131032 82 110 2.0 4.0 0.00 0.00 0.00 73 1017.9
20260902130016 82 94 3.0 4.0 0.00 0.00 0.00 73 1017.7
20260902125020 81 90 2.0 3.0 0.00 0.00 0.00 75 1017.6
20260902124024 80 97 0.0 3.0 0.00 0.00 0.00 77 1017.5
20260902123027 79 101 0.0 2.0 0.00 0.00 0.00 81 1017.4
20260902122030 77 104 3.0 4.0 0.00 0.00 0.00 83 1017.3
20260902121015 77 99 1.0 2.0 0.00 0.00 0.00 84 1017.3
20260902120019 77 75 1.0 1.0 0.00 0.00 0.00 84 1017.5
20260902115017 77 97 2.0 3.0 0.00 0.00 0.00 84 1017.5
20260902114020 77 108 2.0 3.0 0.00 0.00 0.00 83 1017.5
20260902113023 77 94 0.0 2.0 0.00 0.00 0.00 82 1017.4
20260902112020 77 0.0 0.0 0.00 0.00 0.00 81 1017.3
20260902111024 77 90 0.0 1.0 0.00 0.00 0.00 81 1017.3
20260902110027 78 0.0 0.0 0.00 0.00 0.00 80 1017.3
20260902105035 78 67 0.0 1.0 0.00 0.00 0.00 80 1017.3
20260902104015 78 99 2.0 3.0 0.00 0.00 0.00 80 1017.3
20260902103019 78 118 1.0 2.0 0.00 0.00 0.00 80 1017.3
20260902102022 78 103 2.0 4.0 0.00 0.00 0.00 79 1017.3
20260902101025 78 112 0.0 1.0 0.00 0.00 0.00 77 1017.3
20260902100022 79 93 1.0 3.0 0.00 0.00 0.00 77 1017.3
20260902095019 79 100 2.0 2.0 0.00 0.00 0.00 76 1017.3
20260902094017 79 0.0 0.0 0.00 0.00 0.00 75 1017.2
20260902093025 80 168 0.0 1.0 0.00 0.00 0.00 74 1017.2
20260902092028 80 168 2.0 3.0 0.00 0.00 0.00 74 1017.2
20260902091032 80 160 0.0 2.0 0.00 0.00 0.00 73 1017.2
20260902090030 81 173 1.0 2.0 0.00 0.00 0.00 72 1017.2
20260902085015 81 166 2.0 4.0 0.00 0.00 0.00 71 1017.1
20260902084019 81 170 3.0 4.0 0.00 0.00 0.00 71 1017.1
20260902083022 82 164 3.0 5.0 0.00 0.00 0.00 70 1017.2
20260902082045 82 169 3.0 4.0 0.00 0.00 0.00 69 1017.3
20260902081029 82 166 4.0 5.0 0.00 0.00 0.00 69 1017.3
20260902080114 82 159 4.0 7.0 0.00 0.00 0.00 69 1017.3
20260902075037 82 150 3.0 6.0 0.00 0.00 0.00 69 1017.3
20260902074021 83 172 4.0 5.0 0.00 0.00 0.00 68 1017.3
20260902073044 83 169 3.0 5.0 0.00 0.00 0.00 68 1017.3
20260902072027 83 158 3.0 7.0 0.00 0.00 0.00 67 1017.3
20260902071050 84 166 5.0 8.0 0.00 0.00 0.00 66 1017.3
20260902070015 84 155 5.0 8.0 0.00 0.00 0.00 65 1017.3
20260902065039 84 170 5.0 7.0 0.00 0.00 0.00 65 1017.3
20260902064022 84 170 6.0 9.0 0.00 0.00 0.00 65 1017.3
20260902063025 84 158 7.0 11.0 0.00 0.00 0.00 65 1017.2
20260902062043 84 171 5.0 8.0 0.00 0.00 0.00 65 1017.2
20260902061040 84 166 5.0 7.0 0.00 0.00 0.00 66 1017.2
20260902060017 84 174 5.0 7.0 0.00 0.00 0.00 66 1017.2
20260902055021 84 145 3.0 5.0 0.00 0.00 0.00 66 1016.8
20260902054019 84 137 4.0 8.0 0.00 0.00 0.00 65 1016.8
20260902053022 85 152 4.0 6.0 0.00 0.00 0.00 64 1016.9
20260902052025 85 149 4.0 7.0 0.00 0.00 0.00 64 1017.0
20260902051028 85 158 4.0 6.0 0.00 0.00 0.00 63 1017.0
20260902050052 86 151 4.0 8.0 0.00 0.00 0.00 62 1016.8
20260902045041 86 165 6.0 8.0 0.00 0.00 0.00 61 1016.8
20260902044020 86 149 5.0 7.0 0.00 0.00 0.00 61 1016.9
20260902043023 87 156 5.0 9.0 0.00 0.00 0.00 60 1016.9
20260902042027 87 132 6.0 10.0 0.00 0.00 0.00 59 1016.8
20260902041029 88 146 5.0 9.0 0.00 0.00 0.00 58 1016.8
20260902040032 88 142 5.0 7.0 0.00 0.00 0.00 58 1016.6
20260902035022 88 100 2.0 3.0 0.00 0.00 0.00 58 1016.6
20260902034025 88 104 2.0 3.0 0.00 0.00 0.00 58 1016.5
20260902033024 88 104 2.0 2.0 0.00 0.00 0.00 57 1016.4
20260902032027 88 98 2.0 4.0 0.00 0.00 0.00 57 1016.3
20260902031050 88 121 2.0 4.0 0.00 0.00 0.00 57 1016.3
20260902030015 89 122 2.0 3.0 0.00 0.00 0.00 56 1016.1
20260902025018 89 101 3.0 5.0 0.00 0.00 0.00 56 1015.9
20260902024021 89 116 2.0 4.0 0.00 0.00 0.00 55 1015.6
20260902023018 89 117 2.0 3.0 0.00 0.00 0.00 54 1015.6
20260902022016 90 82 2.0 4.0 0.00 0.00 0.00 54 1015.5
20260902021031 90 121 2.0 4.0 0.00 0.00 0.00 53 1015.4
20260902020016 90 108 2.0 3.0 0.00 0.00 0.00 52 1015.2
20260902015019 91 112 1.0 3.0 0.00 0.00 0.00 51 1015.1
20260902014022 91 134 2.0 4.0 0.00 0.00 0.00 50 1015.0
20260902013026 92 120 2.0 4.0 0.00 0.00 0.00 49 1015.0
20260902012029 92 101 3.0 5.0 0.00 0.00 0.00 48 1014.9
20260902011032 93 103 3.0 5.0 0.00 0.00 0.00 47 1014.8
20260902010018 94 96 5.0 6.0 0.00 0.00 0.00 46 1014.7
20260902005021 94 94 6.0 8.0 0.00 0.00 0.00 45 1014.7
20260902004024 95 84 4.0 5.0 0.00 0.00 0.00 45 1014.8
20260902003029 96 82 4.0 5.0 0.00 0.00 0.00 44 1014.8
20260902002031 96 83 6.0 8.0 0.00 0.00 0.00 43 1014.8
20260902001016 97 89 5.0 8.0 0.00 0.00 0.00 43 1015.0
20260902000019 97 96 7.0 9.0 0.00 0.00 0.00 43 1015.0
20260901235022 98 91 5.0 7.0 0.00 0.00 0.00 43 1015.1
20260901234025 98 70 5.0 7.0 0.00 0.00 0.00 42 1015.0
20260901233029 97 100 4.0 6.0 0.00 0.00 0.00 43 1015.1
20260901232026 97 91 7.0 10.0 0.00 0.00 0.00 43 1015.1
20260901231017 97 93 7.0 12.0 0.00 0.00 0.00 42 1015.0
20260901230021 99 87 7.0 10.0 0.00 0.00 0.00 41 1015.2
20260901225018 97 155 3.0 6.0 0.00 0.00 0.00 44 1015.1
20260901224015 101 133 6.0 9.0 0.00 0.00 0.00 39 1015.1
20260901223030 100 128 3.0 4.0 0.00 0.00 0.00 39 1015.1
20260901222041 99 135 3.0 4.0 0.00 0.00 0.00 40 1015.1
20260901221018 99 110 4.0 10.0 0.00 0.00 0.00 39 1015.1
20260901220022 100 51 6.0 8.0 0.00 0.00 0.00 39 1015.3
20260901215025 99 85 6.0 11.0 0.00 0.00 0.00 40 1015.4
20260901214028 100 137 4.0 8.0 0.00 0.00 0.00 40 1015.4
20260901213032 101 79 7.0 11.0 0.00 0.00 0.00 39 1015.5
20260901212017 100 124 4.0 7.0 0.00 0.00 0.00 38 1015.6
20260901211020 100 102 5.0 8.0 0.00 0.00 0.00 39 1015.7
20260901210024 99 66 5.0 9.0 0.00 0.00 0.00 40 1015.8
20260901205027 100 91 5.0 12.0 0.00 0.00 0.00 39 1015.9
20260901204030 102 98 7.0 10.0 0.00 0.00 0.00 38 1016.1
20260901203029 101 113 5.0 8.0 0.00 0.00 0.00 38 1016.1
20260901202031 101 130 3.0 4.0 0.00 0.00 0.00 38 1016.2
20260901201037 102 86 3.0 7.0 0.00 0.00 0.00 38 1016.3
20260901200040 101 149 4.0 5.0 0.00 0.00 0.00 39 1016.6
20260901195108 102 93 6.0 9.0 0.00 0.00 0.00 39 1016.6
20260901194026 101 90 5.0 9.0 0.00 0.00 0.00 39 1016.8
20260901193024 101 102 4.0 8.0 0.00 0.00 0.00 39 1016.9
20260901192015 101 131 3.0 5.0 0.00 0.00 0.00 39 1017.0
20260901191018 100 174 3.0 5.0 0.00 0.00 0.00 40 1017.1
20260901190015 100 89 3.0 5.0 0.00 0.00 0.00 42 1017.3